Location: Unspecified
(0.0000°N, 0.0000°E)
Time: 18:38:44
(UTC+00:00)

Hubble Space Telescope - Pass Details

Date: 23 October 2021
Orbit: 535 x 538 km, 28.5° (Epoch: 23 October)

Event Time Altitude Azimuth Distance (km) Brightness Sun altitude
Exits shadow 04:18:45 15° 2° (N) 1,485 2.9 -21.0°
Maximum altitude 04:20:16 18° 28° (NNE) 1,352 3.0 -20.6°
Drops below altitude 10° 04:23:06 10° 72° (ENE) 1,780 4.3 -19.9°
Sets 04:25:56 0° 92° (E) 2,672 5.9 -19.2°
